Theta_e
312 310 309 309 309 308 308 307 307 307 307 316 310 316 309 305 304 315 315 322 322 315 307 310 306 303 307 306 305 306 306 306 306 303 304 302 304 304 303 303 302 304 303 303 303 304 303 304 302 303 303 304 306 308 308 309 308 308 309 306 309 312 303 300 301 304 307 308 309 309 308 309 307 308 308 307 304 305 303 302 305 299 300 298 298 293 299
311 310 310 309 308 308 307 307 307 307 307 310 313 310 306 305 305 307 315 323 321 312 299 300 302 306 307 306 307 307 308 307 305 304 306 303 303 302 303 303 304 304 307 306 304 307 300 305 304 304 305 304 308 307 307 308 308 307 309 305 312 299 305 302 297 296 300 302 304 305 308 307 306 305 309 308 307 307 307 307 307 296 300 300 297 291 297
310 310 309 309 308 307 307 307 307 307 307 309 312 306 305 304 310 307 312 320 319 307 309 307 305 306 307 306 305 307 306 309 310 310 307 307 305 304 303 304 307 304 306 306 308 308 305 306 306 306 306 306 308 308 306 308 308 309 315 321 312 302 303 301 293 290 288 288 290 295 300 302 306 307 307 308 306 306 305 296 302 295 301 302 297 295 306
310 309 309 308 307 307 306 307 307 307 307 307 312 310 303 303 294 307 307 316 313 313 315 314 310 308 308 302 307 309 307 310 311 310 309 309 308 307 305 305 306 305 305 303 304 305 308 305 306 306 305 306 307 310 311 307 308 317 319 315 313 307 311 306 302 299 297 301 302 306 307 306 301 304 305 306 307 307 308 306 300 297 302 301 303 302 304
309 309 308 307 307 306 306 306 306 307 307 306 311 310 306 305 298 299 298 310 311 310 312 311 309 304 311 299 308 306 306 309 309 311 308 309 309 308 306 304 302 303 303 304 303 305 306 307 306 306 306 308 309 311 313 310 310 323 316 316 313 309 302 305 306 304 304 304 303 306 306 303 304 303 304 305 306 307 307 300 298 306 301 295 304 307 304
309 308 307 307 307 306 305 306 306 307 307 306 311 304 307 297 303 305 315 305 301 303 304 310 310 313 310 306 310 307 306 307 305 309 310 311 313 306 308 306 304 303 302 304 300 305 305 306 305 307 307 307 308 308 313 312 318 316 311 315 312 307 299 310 309 306 306 304 304 306 306 305 305 304 305 305 306 306 305 306 306 308 299 296 306 308 306
308 307 307 307 307 306 306 305 306 307 307 307 312 301 307 307 307 307 313 302 307 310 310 310 311 311 310 309 309 307 307 306 308 309 310 309 310 308 297 306 307 306 305 303 303 306 302 300 307 307 308 307 308 306 309 312 319 314 314 312 319 312 302 311 308 307 307 305 304 305 304 305 304 304 305 306 306 306 307 306 307 306 306 305 306 309 309
308 307 306 306 306 305 305 305 306 307 306 310 307 302 302 301 300 301 308 310 309 309 309 311 309 307 310 301 309 307 308 307 309 310 308 302 308 310 305 306 309 308 308 308 305 306 308 308 307 312 310 309 311 309 310 310 314 314 312 313 318 309 303 307 309 304 305 305 305 305 305 304 303 304 305 305 306 306 306 306 308 310 308 307 308 308 308
307 306 306 306 306 305 305 305 306 308 308 308 304 304 305 312 314 317 305 300 304 306 305 305 305 304 307 305 308 309 308 308 310 310 312 309 308 309 307 311 311 311 311 311 308 311 311 310 311 311 312 306 311 308 311 310 311 312 313 314 317 310 304 310 309 298 301 304 304 304 305 304 303 303 304 304 304 303 305 304 309 309 306 307 308 306 306
306 306 306 306 305 305 305 304 306 307 307 311 306 301 313 315 318 318 308 299 306 302 307 306 305 299 308 309 309 308 309 311 311 306 312 313 313 313 313 315 312 310 311 310 312 314 313 313 314 314 314 315 314 314 313 312 310 312 311 315 309 308 307 303 300 297 296 306 305 304 303 303 300 301 303 304 305 304 306 309 310 310 311 305 300 304 310
306 305 305 305 304 304 304 304 305 306 309 308 306 305 309 307 308 309 307 297 303 302 303 302 302 305 311 309 309 311 311 311 311 304 302 312 312 315 316 314 312 309 310 313 317 318 318 317 315 316 314 313 313 314 314 312 311 310 313 313 312 312 308 303 307 296 296 304 305 307 302 292 294 314 312 308 307 308 306 307 310 312 312 308 309 309 321
305 305 304 304 304 304 304 304 305 306 308 310 311 312 314 316 316 311 303 293 297 306 301 299 302 306 305 310 310 309 309 310 310 312 309 312 314 316 316 315 315 304 316 320 320 320 319 318 315 313 312 311 311 312 312 311 311 313 312 312 310 309 308 302 308 298 297 305 305 297 290 292 313 312 315 310 309 308 307 309 309 311 313 313 312 312 314
304 304 304 304 303 303 304 304 305 306 306 310 310 309 313 315 313 308 304 298 295 300 297 300 304 304 306 308 308 309 310 311 311 312 311 311 312 314 315 314 313 314 320 319 319 318 312 310 310 310 310 310 310 311 310 310 310 313 314 313 312 306 303 301 300 301 301 297 296 288 291 307 310 315 315 316 311 312 312 310 311 311 312 313 313 314 315
304 303 303 303 303 304 304 304 305 306 306 307 307 310 312 314 311 309 305 298 295 303 304 302 301 301 303 303 303 305 306 307 309 311 309 313 311 312 315 316 317 320 320 321 318 316 308 308 301 306 306 307 307 306 308 310 312 312 312 312 313 312 309 305 299 305 294 296 296 296 305 304 306 308 314 311 308 313 308 299 306 312 311 311 312 314 318
303 303 303 303 303 303 304 304 305 305 306 306 309 309 311 313 313 311 314 305 296 301 303 293 300 301 302 303 303 303 303 305 305 305 309 311 311 313 315 316 320 320 321 317 313 314 307 305 298 297 301 299 294 297 307 304 309 312 312 314 312 312 307 307 300 296 302 297 295 295 294 291 299 310 318 320 320 319 317 310 305 312 311 313 313 314 318
303 303 303 303 303 304 304 304 305 305 305 306 308 308 310 313 316 315 312 304 300 291 298 302 306 303 301 304 305 303 300 304 305 306 307 308 308 311 315 319 320 321 318 314 314 308 304 298 296 297 295 298 302 300 299 305 304 308 314 313 310 312 313 311 302 298 298 296 293 292 290 294 304 309 314 319 319 318 318 308 300 312 315 316 316 314 319
303 303 303 303 303 304 304 305 305 305 306 305 307 308 309 315 314 313 309 307 303 292 305 305 305 305 301 300 303 302 304 300 306 301 299 304 308 312 314 318 321 320 315 312 311 306 302 300 304 303 303 304 299 296 302 302 303 304 309 311 308 307 305 306 299 296 297 296 294 292 295 295 306 314 314 316 317 318 314 296 296 313 317 317 318 316 320
303 303 303 303 303 304 304 305 305 305 305 305 306 307 310 315 316 316 311 308 301 299 305 309 304 300 299 303 303 307 309 308 307 308 305 307 308 308 313 314 312 317 317 306 308 302 300 300 297 297 297 306 305 303 295 301 298 299 302 306 304 303 301 302 297 299 298 294 296 299 298 309 314 314 317 316 319 314 297 292 302 315 319 318 321 319 321
303 303 303 303 303 304 304 304 304 304 305 305 307 307 309 314 315 316 312 307 305 296 307 309 309 306 309 308 307 309 310 309 306 299 299 302 306 312 311 312 314 306 314 306 310 301 299 300 307 306 301 304 303 297 306 298 297 305 306 302 303 304 303 299 300 298 298 300 295 296 300 310 317 316 316 314 311 296 296 314 324 320 320 323 322 322 323
302 302 303 303 303 303 304 304 304 304 304 304 306 307 311 314 316 317 310 305 306 303 307 308 308 305 310 306 303 303 306 307 306 303 302 298 310 309 307 301 313 312 310 311 299 306 301 298 303 308 302 303 305 308 302 304 306 304 304 307 302 302 297 297 297 301 302 301 296 295 291 301 319 316 312 316 303 304 313 317 319 322 323 323 322 324 324
302 302 302 303 303 303 304 304 304 304 304 304 304 306 307 315 316 317 317 313 307 302 303 310 310 308 308 306 307 305 303 301 303 302 304 305 311 304 295 295 306 310 303 305 299 300 301 299 305 305 307 305 307 304 297 300 303 309 306 305 304 310 298 298 301 306 297 296 294 294 300 316 318 314 304 312 313 319 319 315 312 322 324 323 323 323 326
302 302 302 303 303 303 303 304 303 304 304 304 304 307 307 314 316 317 317 316 308 302 307 311 312 311 312 313 313 313 309 307 308 309 304 301 308 306 306 308 308 308 312 314 310 308 308 308 308 300 300 303 309 301 305 298 296 306 310 308 296 308 305 306 298 309 300 299 303 311 318 321 319 318 319 322 323 326 326 325 322 319 322 327 323 323 326
301 302 302 302 303 303 303 303 303 303 304 304 305 308 308 312 313 316 316 309 312 312 313 311 311 311 312 312 313 313 313 314 312 311 310 304 300 307 306 306 306 313 314 314 310 310 311 309 303 309 303 306 300 302 305 304 299 305 299 308 306 311 313 316 310 310 315 317 317 318 317 319 320 320 326 325 326 325 322 323 320 322 326 326 324 326 326
301 301 302 302 303 303 303 303 303 303 304 304 306 309 309 312 314 315 312 309 306 300 304 310 306 300 301 302 309 313 312 311 312 313 315 312 300 301 308 309 309 308 310 316 320 312 312 311 311 310 299 306 307 301 297 297 302 306 304 304 306 309 311 310 305 312 307 299 314 314 315 318 321 320 323 325 325 324 323 323 324 327 328 326 331 328 328
301 301 301 302 302 302 303 303 303 303 304 303 304 307 308 310 313 314 307 297 298 298 292 296 300 303 306 307 310 309 310 313 315 314 313 313 309 304 303 313 315 310 311 317 320 315 307 306 308 306 297 308 307 297 307 300 301 308 299 303 304 305 315 308 308 310 305 305 312 316 317 322 324 321 319 320 321 322 323 324 328 329 329 328 329 332 329
301 301 301 301 302 302 302 303 303 303 303 303 304 307 308 309 314 316 313 311 308 303 292 291 298 305 308 304 303 306 308 308 310 313 312 312 310 309 309 313 316 321 318 315 314 305 303 303 302 309 303 300 310 301 300 307 307 310 304 304 309 310 312 301 308 308 309 313 314 315 317 317 317 319 322 323 323 322 323 323 325 326 325 328 329 330 329
301 300 301 301 301 302 302 302 303 303 303 304 305 308 309 311 314 313 309 307 301 294 295 292 299 303 304 302 304 305 307 307 308 309 311 311 310 310 309 309 310 313 312 311 312 308 302 301 302 305 308 306 309 309 309 307 306 304 304 309 313 310 306 311 310 304 302 305 310 314 305 305 312 316 320 322 326 326 325 326 324 325 326 327 327 328 330
300 300 301 301 301 302 302 302 302 303 303 303 305 308 310 311 314 315 316 314 306 296 296 295 296 301 304 299 303 307 308 308 308 308 307 308 310 310 310 310 310 308 310 306 301 301 300 299 302 309 311 311 306 302 310 311 310 305 306 308 311 308 312 311 305 303 302 310 313 317 315 313 315 317 319 324 328 326 326 324 323 324 328 327 328 326 326
300 300 301 301 301 302 302 302 302 303 303 303 306 307 309 311 314 314 313 316 313 306 299 299 301 299 294 300 304 302 304 305 305 306 307 308 310 311 311 311 310 310 311 306 303 302 302 302 309 305 307 314 308 304 307 299 299 299 306 312 313 315 319 317 315 314 313 319 316 319 318 315 320 320 327 328 328 325 324 323 324 326 328 329 329 326 325
300 300 301 301 302 302 302 302 302 303 303 308 307 306 301 304 313 313 314 315 313 309 296 293 290 294 305 302 301 302 302 304 305 306 306 308 309 310 311 312 312 313 311 304 303 299 302 300 305 311 315 317 308 307 303 303 300 303 310 312 315 317 318 320 322 319 315 322 321 322 323 324 325 325 326 329 327 325 322 323 328 327 327 329 328 327 326
300 300 301 301 302 302 302 302 303 302 301 307 305 295 292 291 306 314 311 315 315 309 300 298 293 302 299 304 304 301 301 302 303 304 307 309 311 311 312 314 315 313 306 304 303 302 301 297 302 307 314 314 307 302 302 303 297 304 308 311 314 314 316 317 320 322 321 319 321 320 321 322 324 321 323 325 324 327 329 329 328 327 327 327 327 327 326
300 301 301 301 301 302 302 302 302 303 304 305 302 299 301 304 308 312 313 313 315 306 298 293 293 293 292 297 302 305 303 303 303 306 309 311 310 312 315 313 312 314 307 303 302 300 298 304 305 307 308 313 306 306 306 302 298 301 309 311 316 316 317 318 319 320 320 320 318 319 318 318 320 318 318 325 325 326 328 328 328 326 324 326 326 327 326
300 300 301 301 301 301 302 301 302 303 302 304 305 304 304 304 302 307 311 315 311 304 305 296 290 292 289 295 302 301 305 306 305 304 304 311 307 312 310 313 314 313 314 306 300 298 302 299 305 304 309 315 304 301 305 302 303 308 309 312 314 316 317 318 318 318 319 320 319 315 315 318 321 323 325 326 324 324 327 325 324 324 324 322 321 322 323
300 300 300 301 301 301 301 302 303 302 303 303 300 303 310 305 306 305 314 314 307 306 302 295 290 289 289 300 294 302 304 300 301 304 297 308 310 311 307 311 312 303 306 302 300 300 301 303 295 303 310 307 309 303 298 305 308 309 311 314 317 316 316 317 317 316 317 318 319 320 318 319 325 325 324 325 325 326 326 324 323 322 322 322 322 322 322
300 300 301 301 301 302 302 302 302 298 298 300 303 311 312 305 308 307 310 310 300 294 294 294 294 290 289 291 291 298 307 301 299 303 299 303 314 309 312 302 307 299 299 312 297 299 294 296 306 297 296 310 301 296 301 305 308 311 312 312 315 315 315 315 316 317 317 319 319 318 317 319 321 320 322 323 323 323 322 322 323 322 321 321 321 321 322
301 301 301 301 301 302 304 301 301 297 297 299 301 308 306 306 308 313 314 313 309 297 294 294 294 290 291 287 287 296 305 298 302 303 302 306 305 311 310 303 297 302 309 304 297 304 298 309 299 294 307 298 295 300 305 308 308 311 312 312 314 315 314 316 317 316 316 317 316 315 316 319 320 322 323 322 322 322 322 322 322 323 322 321 321 322 322
301 300 301 301 302 299 295 295 299 301 303 311 310 307 307 309 312 312 309 306 309 310 299 295 292 292 293 292 296 300 300 292 303 299 302 299 297 300 304 298 294 297 297 296 298 297 306 310 303 297 297 296 298 308 310 310 310 307 307 310 315 317 317 317 317 316 315 314 314 315 316 318 319 320 321 322 323 323 323 322 323 322 321 322 321 321 322
301 301 300 297 297 289 288 293 297 308 307 306 307 307 306 306 298 298 299 297 301 303 299 299 293 296 300 296 289 301 299 295 302 296 296 300 297 296 303 298 297 295 291 294 298 309 306 299 297 296 297 305 308 310 310 311 310 310 310 310 313 316 316 317 317 314 313 313 313 314 315 316 316 317 318 320 322 322 323 324 324 324 323 322 323 323 322
300 299 298 297 293 288 290 299 310 308 310 309 310 299 296 298 295 292 293 295 296 292 299 297 293 297 296 295 295 303 299 297 295 298 293 304 295 292 298 292 295 295 292 293 298 308 294 296 297 295 294 304 305 308 307 308 307 308 310 312 313 314 314 314 317 318 315 316 317 318 319 315 314 315 318 318 319 321 321 321 321 322 322 321 322 322 324
297 293 292 293 293 298 305 304 304 308 307 299 301 297 290 296 291 287 297 290 290 294 298 291 298 298 299 295 294 293 304 296 289 291 296 297 305 294 297 294 296 292 289 290 292 304 294 291 295 295 294 302 302 304 305 306 306 308 310 312 313 313 314 312 314 320 321 321 321 320 320 320 319 319 319 318 318 318 319 320 321 323 323 325 324 323 324
295 296 295 293 301 303 306 309 310 307 299 294 292 292 291 288 292 294 292 289 289 291 300 296 299 298 300 301 299 294 303 305 304 304 301 294 304 300 294 290 297 290 290 290 297 297 297 295 295 294 295 299 301 303 304 306 307 307 310 311 312 314 313 314 317 320 319 318 321 319 321 320 320 319 319 321 319 319 320 320 320 322 322 321 323 324 323
298 302 304 307 306 307 307 305 301 295 294 295 288 285 288 290 292 291 291 286 288 292 296 297 294 295 296 300 299 300 298 306 305 300 295 291 294 293 293 295 295 289 287 295 301 297 296 292 292 294 301 302 303 303 303 303 306 307 308 310 311 313 314 315 318 319 319 318 317 317 318 318 318 317 317 318 319 320 320 320 322 323 323 324 323 322 322
299 302 306 304 303 300 299 292 295 293 286 285 285 282 287 284 287 286 288 292 298 295 296 302 300 302 303 304 301 304 301 306 298 298 295 292 295 295 293 291 290 287 293 302 297 294 292 291 291 297 301 302 302 302 303 304 306 308 309 310 313 314 316 317 318 317 319 319 318 317 317 316 316 317 316 319 321 321 322 321 321 321 322 322 322 322 321
303 304 299 297 294 293 295 284 294 288 285 287 283 279 283 282 286 288 287 291 295 293 296 294 296 295 291 301 297 296 299 302 300 298 295 295 293 290 290 288 290 299 301 294 293 290 292 295 299 300 301 302 302 302 303 305 306 308 308 309 311 313 314 315 316 316 316 317 317 317 315 314 315 315 316 319 321 320 320 321 322 322 322 322 321 320 320
296 293 294 291 288 290 288 282 291 286 281 283 286 284 285 282 286 288 288 297 296 294 297 297 297 297 294 300 301 299 298 293 298 293 289 294 291 292 289 289 292 292 291 289 291 292 292 293 301 301 300 300 301 302 304 304 305 306 307 308 309 311 312 313 313 314 314 314 314 314 314 315 316 316 316 316 318 320 320 319 320 320 321 320 319 318 318
293 291 289 285 280 286 286 283 285 283 287 289 287 289 289 290 291 291 297 297 295 296 295 296 295 297 295 300 294 293 296 294 292 291 293 293 289 288 293 294 294 288 288 289 288 288 292 297 299 300 300 300 301 303 304 305 305 306 306 305 307 309 310 311 311 312 312 313 313 313 312 314 314 314 314 315 317 318 319 321 321 321 321 319 318 317 318
292 292 292 289 285 286 288 283 285 288 291 291 292 293 292 293 295 295 296 296 295 296 296 297 296 297 294 296 293 293 296 295 291 291 293 287 288 291 293 290 287 288 286 285 287 291 295 299 300 301 301 302 303 304 304 304 304 304 304 305 305 306 307 308 308 309 309 310 310 310 310 311 311 313 313 313 314 316 317 320 322 322 320 318 317 318 318
288 291 290 282 282 285 282 286 293 294 294 294 295 295 295 295 293 292 296 296 297 297 295 296 294 296 295 298 298 292 293 294 290 291 292 291 292 289 288 287 288 290 290 289 291 297 298 300 302 302 302 303 304 303 302 303 303 304 304 304 305 305 306 307 307 308 309 309 308 308 308 309 310 310 311 312 313 313 316 318 319 320 319 319 318 318 318
293 289 286 285 287 287 287 291 291 289 292 293 294 294 293 292 292 294 297 297 296 296 297 297 296 296 291 294 292 291 289 292 287 288 291 290 287 285 285 283 286 285 291 295 296 297 299 302 302 302 303 303 303 303 303 304 304 303 303 303 303 304 304 305 306 308 309 309 309 307 306 306 308 310 311 311 310 310 313 316 318 319 320 318 317 317 317
289 288 288 287 286 288 292 292 290 289 292 293 293 293 295 294 294 296 299 296 297 297 296 294 297 293 292 292 288 290 289 292 290 291 289 287 287 288 288 284 287 287 292 296 298 299 302 303 303 302 303 303 303 304 303 303 300 302 302 301 301 301 301 303 304 304 304 305 306 306 307 307 308 309 310 312 313 314 313 313 315 316 317 318 317 317 317
291 289 290 294 289 287 290 285 286 286 290 292 293 294 295 295 296 297 298 298 298 297 295 292 292 291 290 289 288 285 287 292 289 288 288 287 290 288 287 286 290 295 298 300 302 302 303 303 303 302 302 302 302 303 303 303 302 302 301 301 301 301 301 302 302 303 303 304 305 299 305 305 307 310 311 311 311 312 312 312 312 314 315 316 317 317 316
288 286 286 290 292 292 292 294 294 293 294 295 295 296 295 295 297 298 298 297 297 293 291 294 292 290 288 286 288 291 292 290 288 288 287 289 290 288 289 291 296 298 300 300 301 303 302 303 303 303 302 302 302 303 303 303 303 302 302 301 300 300 300 301 302 303 304 304 306 306 307 307 308 309 311 310 309 309 308 310 311 312 314 314 315 316 316
Wind_Speed
11 10 8 6 5 4 4 5 8 12 17 5 3 3 4 4 6 4 1 4 5 5 4 3 4 5 1 2 3 2 4 3 1 4 4 5 4 3 5 5 6 7 7 3 5 5 5 5 8 6 9 8 7 5 2 3 6 6 2 2 3 2 5 6 6 1 2 2 2 2 3 6 9 10 10 6 7 5 6 5 5 6 5 5 2 3 2
12 10 9 7 5 4 2 4 7 9 11 4 4 4 5 4 5 2 3 2 6 5 3 3 5 4 3 4 1 2 2 2 3 6 3 4 4 6 4 4 8 6 3 5 6 5 5 5 7 7 4 5 5 1 3 6 5 7 4 6 8 4 2 6 4 3 4 4 3 5 4 6 6 6 7 10 8 7 4 4 3 5 7 8 6 4 2
12 10 8 7 5 4 2 4 6 7 7 6 4 4 4 5 3 4 2 2 4 5 1 2 3 5 5 5 7 5 5 4 6 4 4 3 5 2 5 5 2 6 5 7 6 5 8 2 5 6 2 5 4 2 4 7 8 7 5 5 8 6 4 6 5 5 4 4 5 3 5 8 6 8 7 8 11 9 5 4 4 5 4 6 4 4 2
12 10 9 7 5 4 2 3 5 6 6 8 4 3 4 3 2 3 4 2 3 0 1 3 3 3 5 4 5 3 5 4 4 4 6 6 5 5 6 3 4 6 4 8 8 9 8 8 2 5 6 6 4 3 3 6 8 2 5 3 7 3 2 7 8 7 6 5 6 4 5 3 6 6 10 9 9 9 9 6 6 5 3 5 6 9 8
11 10 9 7 6 3 1 3 4 6 6 6 3 2 4 3 4 1 2 3 3 2 3 3 4 4 2 3 3 7 8 3 4 5 5 4 2 3 6 5 5 5 7 8 9 9 7 8 8 8 9 5 2 5 3 5 6 9 5 7 6 4 5 9 11 11 9 6 5 1 4 6 6 5 6 7 9 10 10 6 7 4 7 7 4 6 7
11 10 9 7 5 3 3 2 4 6 6 4 3 4 3 4 1 2 4 3 2 4 3 2 4 1 3 2 1 4 7 7 7 5 6 1 4 4 4 7 9 9 8 5 6 7 9 7 8 8 8 7 6 7 8 7 10 10 6 8 6 7 5 3 6 10 4 2 1 2 4 6 5 6 5 7 8 10 12 13 13 7 6 8 3 2 7
13 11 9 7 6 5 2 1 3 5 4 4 3 5 2 4 2 1 2 3 0 3 5 1 1 4 6 4 5 6 6 7 5 3 3 6 4 6 2 5 5 5 7 8 7 6 5 4 8 6 5 4 3 5 5 4 9 9 6 8 2 3 8 2 5 6 4 2 3 3 6 4 6 6 6 7 8 10 12 12 11 12 11 12 12 9 9
14 12 9 7 6 4 3 2 1 3 5 5 4 6 4 4 5 3 3 3 1 1 2 2 3 6 5 3 7 7 8 9 6 5 6 3 5 3 7 7 2 3 3 4 7 8 9 8 6 1 5 5 4 4 5 1 6 7 7 7 3 6 1 3 5 7 5 4 3 3 6 6 8 7 6 7 8 9 11 11 10 9 11 13 13 13 12
14 12 9 7 6 4 3 2 1 3 4 3 5 3 3 3 3 4 3 5 3 3 4 4 5 4 6 6 5 5 7 9 4 6 4 8 6 5 5 3 6 5 6 6 8 8 10 11 11 10 8 7 3 4 2 3 4 7 5 5 4 6 1 3 4 5 6 5 6 5 4 6 8 8 8 8 7 10 10 8 9 10 11 12 12 11 10
13 11 9 8 6 5 3 2 2 2 2 3 2 5 2 2 0 3 3 4 3 5 4 4 3 4 5 4 5 5 7 2 2 6 7 9 9 7 2 3 4 7 6 8 5 9 11 12 11 10 10 10 10 8 9 6 5 3 7 5 6 7 5 4 4 5 4 5 4 5 3 5 7 10 10 11 13 14 10 10 9 11 11 10 7 11 5
12 10 9 8 6 5 3 3 3 0 3 2 3 2 3 4 4 4 4 5 4 5 4 5 7 1 2 3 6 4 4 4 3 5 1 1 3 3 2 4 4 5 6 5 9 11 12 12 12 10 10 11 11 10 9 10 9 8 5 5 4 7 8 5 6 4 3 7 5 4 5 6 4 4 3 3 6 6 9 9 10 11 10 9 9 10 2
11 10 9 7 7 5 5 5 4 3 3 2 3 3 2 3 4 3 4 5 3 3 5 5 5 3 6 2 2 5 7 8 7 4 8 6 5 6 6 5 3 3 6 8 11 12 13 10 10 9 10 9 9 10 11 11 8 6 8 8 6 9 7 7 4 3 5 5 5 5 6 7 3 2 2 1 4 6 9 11 11 9 9 13 14 14 13
11 10 8 7 6 7 6 5 5 3 1 2 3 3 1 3 5 4 5 6 3 5 6 6 3 5 3 3 5 5 6 7 7 7 8 9 10 8 5 5 5 7 10 11 12 11 9 7 7 10 9 7 7 7 10 11 9 6 6 8 8 7 7 3 5 4 1 3 5 6 5 3 4 2 1 2 2 4 5 10 12 11 8 9 11 11 7
11 10 9 8 8 7 6 6 5 5 4 2 3 3 2 4 5 4 5 3 4 3 2 2 3 6 7 8 8 8 7 9 9 8 9 7 10 11 8 6 5 6 7 9 9 6 6 6 5 6 10 9 7 7 7 4 4 6 8 9 8 9 8 6 4 3 6 5 5 7 1 6 7 3 3 6 4 4 3 5 5 4 5 8 9 7 3
10 10 9 9 9 8 7 6 5 6 4 4 3 3 4 4 4 4 2 4 2 2 3 3 1 3 5 6 6 6 7 7 7 9 10 9 10 9 9 8 6 7 7 7 6 5 5 4 5 4 8 9 7 6 8 8 5 2 2 4 8 9 10 5 9 3 7 6 6 6 5 6 5 6 4 3 1 1 2 3 9 7 8 8 8 6 3
10 10 10 10 9 8 7 6 5 5 5 4 3 4 5 4 3 4 4 4 3 4 4 5 2 0 1 2 3 6 4 4 5 5 7 8 10 11 7 3 5 5 6 6 5 4 3 4 6 7 8 9 9 5 6 6 5 5 1 5 8 7 6 7 7 4 4 7 7 5 6 4 3 2 5 4 3 3 2 4 8 6 5 4 4 4 4
11 11 11 10 10 9 7 6 6 5 5 5 4 4 5 6 5 4 3 3 4 1 5 2 3 2 2 4 4 6 5 4 3 4 4 6 5 5 5 7 5 6 6 7 6 5 3 5 8 9 9 6 6 4 3 4 3 1 3 6 9 9 9 7 9 6 6 6 7 7 4 4 4 4 5 4 4 4 3 5 3 7 3 3 4 4 5
12 11 11 11 10 9 8 7 6 5 6 6 4 4 4 5 6 5 5 5 4 3 3 2 3 2 2 3 1 1 1 3 5 4 6 7 7 7 5 6 5 4 3 7 4 4 6 5 7 6 8 2 3 2 8 4 4 5 5 9 8 7 5 7 10 9 8 10 6 6 3 4 4 4 6 5 4 4 4 6 2 5 3 3 4 4 5
12 12 11 11 10 9 8 7 6 6 5 7 4 3 5 6 6 6 5 4 4 2 3 0 3 5 3 2 2 2 3 4 4 2 3 6 2 5 7 4 2 3 3 5 6 5 6 6 5 7 8 5 3 4 3 5 5 3 2 4 8 8 6 4 5 9 9 9 10 6 6 1 7 5 6 7 5 3 7 2 2 3 3 3 4 4 6
12 12 11 10 9 9 8 8 7 6 6 7 6 3 2 5 6 8 5 4 3 4 1 2 3 5 3 3 1 2 3 5 5 6 4 4 3 8 5 4 7 6 6 3 5 5 7 7 7 4 7 9 5 1 4 8 5 7 4 3 8 5 4 6 7 7 7 5 6 7 8 4 9 11 5 3 5 5 4 2 1 1 1 3 5 5 6
13 12 10 9 8 8 7 7 7 6 7 8 7 3 4 4 4 6 6 6 4 4 3 2 4 7 7 8 7 7 7 7 4 5 5 6 4 3 4 2 3 3 2 2 5 5 3 6 8 6 1 4 0 2 7 7 9 7 8 3 4 3 3 4 7 8 6 7 8 5 4 5 13 13 5 10 11 0 3 6 7 4 3 4 4 5 6
12 10 9 9 8 7 7 7 7 6 6 7 6 4 4 5 4 5 5 4 5 3 2 3 4 6 7 8 7 7 8 9 8 6 6 7 3 6 6 5 4 3 3 4 3 2 3 2 2 2 4 6 2 6 6 8 11 5 5 7 5 7 7 4 8 4 7 6 8 5 5 7 12 12 3 5 10 2 1 2 1 3 4 4 4 6 7
11 10 9 9 8 7 7 6 6 6 6 7 6 4 3 5 5 3 5 5 5 7 7 8 8 9 9 12 13 12 11 10 10 9 9 7 4 5 7 6 6 3 4 3 6 6 4 3 3 3 3 4 3 6 8 10 8 7 5 8 8 2 3 4 6 10 11 6 2 3 3 4 8 10 5 2 3 4 1 3 3 2 1 5 4 6 8
11 11 10 9 8 7 6 6 6 6 6 8 7 3 3 1 3 6 6 5 3 3 4 6 5 3 2 3 6 6 7 8 10 10 8 8 6 4 4 6 5 3 5 3 3 5 3 3 3 2 4 2 2 7 5 6 10 8 8 6 3 8 7 6 9 8 7 5 8 6 6 7 8 9 9 5 3 3 5 4 4 0 1 4 2 5 8
12 11 10 9 8 7 6 6 6 6 6 7 5 2 3 3 4 6 5 3 2 2 2 2 7 3 4 2 2 5 6 5 6 8 9 11 11 9 6 4 1 6 5 3 1 3 2 6 4 5 4 2 0 4 4 6 5 5 9 10 6 6 5 10 14 12 13 9 5 9 8 5 4 6 8 10 11 9 6 5 2 1 1 3 4 4 7
12 11 9 9 8 7 6 5 5 5 5 7 5 3 4 4 4 2 3 3 1 2 2 3 2 5 1 4 5 2 1 5 7 9 11 13 14 13 11 4 4 2 1 1 3 3 2 3 4 5 4 2 1 3 5 5 9 11 9 11 8 3 11 7 10 10 11 8 3 4 3 7 9 9 9 7 7 10 9 8 6 4 4 5 5 5 7
11 10 9 9 8 7 6 5 5 5 5 6 5 3 4 2 3 6 6 4 3 2 2 4 4 0 4 8 8 8 7 6 8 9 10 12 13 13 11 10 8 6 6 4 2 2 2 3 4 8 6 4 2 2 2 6 8 11 9 10 3 6 11 10 7 10 13 8 8 7 6 7 10 13 13 12 8 7 8 8 8 7 7 8 8 5 5
11 10 9 9 7 7 6 5 4 4 4 3 3 3 2 4 5 5 4 5 5 4 3 3 3 5 9 14 8 3 3 4 6 8 10 12 13 12 11 11 9 8 5 4 3 3 3 3 8 6 5 3 4 3 5 5 8 11 11 11 10 13 10 12 9 9 9 11 12 9 11 13 6 6 5 9 9 9 9 10 10 9 8 9 9 9 7
12 11 9 8 7 6 5 4 3 3 5 4 3 3 4 4 4 4 4 3 4 4 3 5 7 7 5 4 3 8 7 7 7 9 9 10 11 11 11 11 9 7 5 3 3 3 4 4 5 6 6 3 5 4 5 6 7 10 10 11 11 12 11 11 11 13 13 5 4 6 8 13 4 7 8 10 9 10 10 10 9 9 9 9 9 10 11
12 10 9 7 6 5 4 3 2 3 4 4 4 4 4 5 6 7 5 4 4 4 2 2 3 1 4 5 7 6 7 6 7 8 10 8 10 10 10 9 8 7 5 4 3 5 3 3 3 5 5 4 5 2 5 4 5 9 11 14 12 13 13 10 7 7 7 1 2 3 6 7 2 1 2 3 6 9 10 10 8 8 8 9 9 7 7
12 10 8 7 6 4 3 3 2 3 4 4 5 2 3 3 5 6 7 5 4 4 2 2 4 5 6 5 6 8 7 7 6 7 9 9 8 9 7 6 5 6 4 4 3 5 1 3 2 5 4 8 5 4 7 7 6 5 12 12 10 13 14 12 8 7 7 6 4 3 5 5 2 2 4 5 6 5 5 6 6 4 6 8 7 5 6
12 10 9 7 5 4 2 2 2 3 3 6 4 1 3 4 4 4 7 6 5 4 2 2 3 3 2 4 3 3 5 6 5 5 6 6 7 6 6 8 6 7 6 4 3 1 2 4 6 7 7 5 5 5 6 10 9 11 13 13 9 9 7 8 9 9 7 6 5 5 6 8 6 7 3 8 7 5 3 5 6 7 6 4 6 6 6
11 10 9 6 5 3 2 1 3 3 1 6 9 6 7 6 2 2 7 6 4 1 2 2 3 2 2 1 5 6 3 3 5 6 7 7 7 6 7 7 5 3 4 3 3 3 1 2 1 5 5 4 4 4 9 12 12 10 14 14 9 8 10 10 9 8 8 6 8 9 6 4 6 4 4 6 7 6 6 7 8 8 7 7 7 7 7
11 10 8 6 4 3 2 1 1 5 5 4 4 5 5 9 4 4 4 5 2 2 1 2 2 2 4 3 8 1 4 6 6 6 6 7 6 6 5 5 4 3 4 5 0 1 1 1 2 2 1 5 5 5 7 12 12 12 11 9 7 10 12 11 10 8 8 8 7 5 4 5 2 4 4 6 8 7 7 7 9 10 9 8 8 7 7
11 9 7 5 4 2 2 3 4 4 3 4 2 3 6 12 9 6 5 4 3 2 1 2 2 4 4 3 6 2 3 3 6 5 8 4 3 6 5 3 3 3 0 1 0 2 1 4 4 2 3 1 2 4 8 10 10 8 9 11 8 7 13 14 9 4 4 4 5 3 3 3 5 6 6 7 8 9 10 10 10 10 9 8 8 8 8
10 8 6 5 4 5 4 3 4 4 3 3 3 6 8 8 7 4 2 1 4 2 2 2 2 4 4 5 5 0 2 7 5 4 5 2 5 2 3 3 4 1 2 3 2 2 3 3 2 3 3 2 5 5 7 5 7 8 7 9 7 9 12 12 9 5 4 4 4 2 2 4 5 6 7 8 9 9 10 11 11 10 10 9 9 8 7
9 7 6 6 5 4 4 3 4 4 2 4 7 10 13 11 4 2 2 4 3 3 5 4 4 6 6 6 3 3 4 5 3 5 5 5 5 2 3 2 4 1 0 1 2 3 3 4 3 5 6 6 5 4 4 6 9 9 9 10 8 5 6 8 7 3 3 6 5 3 2 4 5 4 7 7 8 9 10 10 10 9 9 10 8 6 7
9 7 6 6 5 3 2 4 3 7 12 13 12 8 5 5 3 2 2 3 2 3 4 5 7 6 4 5 6 1 2 4 0 4 3 2 2 3 2 3 1 2 2 3 3 1 1 2 3 5 6 7 6 4 4 5 7 9 10 9 8 6 5 7 7 2 3 5 5 4 4 6 5 2 6 8 8 8 6 6 6 6 7 7 5 5 5
8 5 4 4 3 2 1 5 7 11 7 4 4 1 2 1 2 2 2 2 1 3 5 6 8 7 8 8 8 4 6 5 5 4 4 3 2 2 2 5 1 1 2 2 3 5 3 3 3 2 3 2 3 0 5 7 8 8 8 8 6 5 5 8 10 7 1 3 5 5 5 4 3 3 5 6 7 6 6 5 6 6 8 8 7 4 3
5 6 4 4 2 4 5 4 4 8 6 4 2 1 2 2 3 2 2 2 2 2 3 5 7 7 8 9 8 6 7 7 6 5 4 1 1 3 1 2 1 1 3 4 2 5 3 4 3 2 3 2 1 3 4 5 8 8 8 7 5 6 6 10 11 8 2 2 2 4 5 5 5 7 4 5 6 7 7 7 6 5 5 5 4 3 2
5 4 5 4 6 6 6 7 6 5 3 2 2 0 0 2 3 1 1 4 4 2 5 5 4 5 6 8 8 8 4 3 1 2 3 2 3 3 1 2 1 2 3 4 2 2 2 4 4 5 1 0 4 5 6 5 5 7 6 7 7 7 9 10 12 10 7 5 2 2 4 6 5 4 8 5 4 6 7 7 6 6 6 7 6 4 4
2 1 4 6 6 7 7 6 3 2 0 0 1 2 2 1 1 2 2 3 4 2 5 5 7 8 6 8 7 6 3 1 1 1 2 2 0 1 2 1 1 2 3 0 1 2 3 5 4 4 3 2 3 5 5 5 4 5 4 4 7 9 11 12 10 8 6 3 3 3 2 5 6 8 8 7 2 5 7 7 7 7 7 6 5 6 5
1 1 3 7 7 6 3 4 2 1 2 2 1 2 2 2 3 4 3 4 1 3 2 3 3 2 1 1 4 3 1 0 2 1 2 0 1 1 2 1 1 4 2 1 3 2 5 5 4 1 3 4 4 6 6 6 7 5 4 4 3 3 5 6 9 9 6 6 7 5 4 3 3 7 6 7 4 7 6 6 7 7 6 6 7 7 6
2 4 4 4 3 2 2 4 2 1 1 2 3 5 5 4 4 3 2 4 4 5 5 5 4 5 2 5 3 3 3 3 1 0 1 1 1 2 1 3 3 3 4 3 3 6 4 0 2 3 5 4 4 5 7 6 6 5 3 4 4 2 1 2 5 7 7 5 6 7 5 5 8 6 5 2 2 7 7 7 6 7 7 8 7 7 6
5 3 3 3 2 2 1 2 2 2 4 5 3 5 5 6 6 8 6 3 3 1 3 3 2 4 2 4 2 2 1 1 1 1 1 1 2 1 2 1 1 1 2 3 3 3 2 3 2 3 4 5 5 5 5 5 4 4 3 4 5 4 3 4 5 6 7 7 9 9 10 9 7 7 6 4 3 5 7 7 6 7 7 7 7 7 6
5 5 5 4 2 2 2 2 3 4 3 3 5 7 7 6 3 3 3 2 2 2 3 1 2 3 3 3 2 1 2 2 2 1 1 1 2 2 0 0 0 0 1 2 3 5 2 1 2 2 3 4 4 4 3 4 4 4 4 5 6 6 6 6 7 7 7 8 8 8 8 7 7 7 8 6 5 6 6 5 5 6 7 7 7 7 6
2 1 1 1 3 2 2 3 5 3 2 6 7 6 6 2 1 3 2 1 3 1 2 1 3 3 2 4 2 2 1 1 2 2 2 1 2 0 1 2 2 2 2 3 3 2 1 2 2 2 3 3 3 3 4 5 6 7 7 7 8 8 8 9 10 10 10 11 12 11 10 9 9 8 8 9 8 7 7 7 7 7 7 8 7 7 7
3 1 1 2 3 3 6 4 3 3 3 3 2 2 1 1 3 5 4 2 1 1 3 2 3 4 3 1 3 1 3 3 2 2 1 0 0 2 1 2 2 1 1 1 0 1 2 2 1 3 3 3 4 4 6 7 8 9 9 10 11 11 11 11 11 11 11 12 11 10 9 9 9 9 9 9 9 9 8 7 7 7 7 7 8 8 8
0 2 2 1 0 2 4 5 5 6 5 5 3 3 4 5 6 5 3 3 3 2 1 2 1 2 2 0 2 3 3 2 3 2 2 2 2 1 2 2 1 2 1 1 2 1 2 2 3 2 2 3 4 5 6 7 7 9 10 10 9 9 10 11 10 10 10 10 10 10 8 6 7 9 10 11 10 7 6 6 7 6 7 8 8 9 9
1 1 0 1 2 2 1 2 5 6 5 4 4 5 5 5 5 2 2 3 3 4 5 2 1 0 1 1 2 2 2 1 1 1 2 3 2 1 1 2 1 0 1 2 2 2 1 2 2 2 4 4 5 5 6 7 7 8 9 9 9 9 9 9 9 10 10 8 9 8 6 5 7 9 11 12 8 4 6 7 7 7 7 7 8 8 8
0 1 0 1 2 1 6 5 7 5 5 5 5 3 3 4 3 3 2 1 4 6 5 3 3 2 2 2 2 3 1 0 2 3 2 1 0 1 2 2 2 2 2 3 3 2 1 3 4 5 4 5 5 6 6 6 7 8 7 7 8 8 8 10 9 7 7 7 7 7 7 7 6 6 6 8 7 8 9 8 9 7 7 7 7 8 8
2 3 2 3 2 2 4 3 2 3 1 1 1 2 1 2 2 2 2 2 5 5 4 3 3 3 3 3 1 1 1 1 0 1 2 1 0 1 1 2 4 4 5 4 3 1 3 5 4 3 3 4 5 5 6 6 6 6 7 8 8 8 10 9 7 7 6 6 8 5 4 5 5 4 6 10 10 9 9 7 4 5 6 6 7 8 8
Wind_Direction
155 149 153 149 115 77 41 358 6 4 338 300 4 295 255 245 280 54 339 344 300 253 222 136 193 222 62 81 206 172 206 266 80 240 177 222 211 239 230 248 253 243 261 245 243 218 236 217 222 225 222 249 242 67 142 156 203 242 153 160 122 24 230 220 231 209 154 164 191 181 226 240 239 236 254 250 243 244 278 305 349 308 304 272 268 273 47
150 154 150 131 113 91 66 7 22 11 11 354 308 266 276 294 294 285 140 291 296 254 214 196 205 189 134 225 152 165 299 243 206 224 202 240 184 227 237 239 236 285 267 254 243 188 239 198 246 226 215 240 63 19 232 207 229 228 155 245 137 209 210 262 234 226 180 167 177 188 176 221 238 249 213 230 245 251 278 295 286 276 274 287 292 302 349
150 149 142 129 126 111 52 45 24 12 1 343 303 296 336 292 246 244 269 220 236 254 265 242 200 186 196 191 211 185 213 216 273 301 243 207 258 248 233 258 332 242 237 254 257 229 254 262 202 290 239 238 129 108 223 216 249 233 25 8 148 231 190 214 241 243 248 244 232 207 190 212 217 241 235 217 231 222 210 242 225 252 262 279 274 280 336
146 144 139 134 126 125 97 39 23 2 358 330 264 301 265 234 260 148 183 163 181 189 15 308 258 175 183 208 218 224 233 180 205 223 251 255 253 255 295 277 247 268 239 243 240 236 223 241 223 217 221 217 190 167 196 210 229 117 114 204 178 237 229 238 252 265 264 297 42 12 325 154 226 201 220 214 218 222 225 270 272 264 264 251 254 273 302
146 144 142 138 138 134 74 54 8 360 352 347 305 256 273 332 259 254 191 157 216 185 177 191 216 226 178 219 168 212 223 224 183 168 244 111 294 253 237 249 241 236 242 254 255 242 232 223 255 251 258 255 238 148 239 203 205 125 160 207 207 227 239 228 247 261 290 336 315 331 257 251 245 243 221 218 211 211 219 229 253 275 284 267 286 267 273
148 145 145 147 145 146 103 22 357 353 355 337 265 248 192 241 139 309 23 303 146 187 173 187 208 116 204 220 170 230 209 203 217 163 238 284 204 250 179 231 241 250 240 257 258 244 239 224 232 241 244 262 231 225 185 215 160 172 190 179 211 233 251 182 229 240 294 353 105 189 228 268 285 268 250 220 206 207 216 227 241 248 257 282 20 306 270
150 147 150 155 157 146 133 84 355 349 12 304 267 257 159 299 357 314 36 248 25 6 48 358 251 199 204 218 203 223 216 212 213 260 168 213 195 214 249 234 233 252 265 253 260 262 239 223 238 260 267 249 322 252 173 185 156 191 174 180 238 253 241 142 230 245 234 204 212 186 246 238 248 252 243 237 219 217 225 238 246 243 250 259 281 288 283
149 149 157 164 164 159 164 155 326 5 340 277 245 250 268 197 229 177 183 287 82 123 207 205 216 218 183 228 209 229 224 235 214 213 234 233 214 163 239 245 322 300 301 284 254 253 262 290 287 15 314 281 223 288 278 224 178 198 191 179 175 236 179 125 191 235 217 206 187 211 236 246 257 247 251 251 241 240 236 246 250 264 261 265 269 266 275
148 146 157 167 166 167 160 205 237 59 317 206 236 219 238 344 349 336 265 208 177 190 218 216 225 231 199 225 206 222 227 239 244 256 240 246 242 218 249 11 302 298 287 278 267 282 293 291 283 279 283 279 311 291 86 277 209 201 185 201 152 217 207 183 203 245 213 187 222 208 234 247 267 281 267 260 264 267 254 242 240 236 248 257 258 262 262
142 145 162 166 173 169 176 212 221 52 308 283 267 233 108 259 33 263 274 253 128 232 157 224 226 232 217 228 209 223 229 260 225 262 242 249 261 278 294 342 317 270 266 262 327 345 321 305 300 300 295 294 285 269 273 279 280 225 215 184 211 204 195 193 214 239 248 140 215 210 219 274 261 248 240 248 246 242 250 249 241 238 250 260 264 267 304
145 153 161 165 171 184 176 196 210 299 258 243 249 248 189 226 204 195 230 253 179 229 213 207 221 360 75 178 233 221 244 220 235 246 186 215 197 118 20 324 293 279 275 342 342 318 308 293 292 286 280 274 267 260 254 252 246 244 246 189 211 208 220 242 222 234 258 155 184 194 219 248 262 54 47 282 271 250 255 256 247 243 230 245 253 275 356
152 157 164 173 180 187 185 191 198 147 267 272 310 296 4 317 271 237 209 222 202 160 230 227 227 172 220 186 253 250 236 227 236 274 275 278 292 305 308 273 256 250 36 329 320 316 301 271 254 256 260 258 258 255 248 243 233 213 238 240 208 213 198 234 198 215 242 152 175 217 241 268 71 170 83 343 293 277 270 274 271 272 243 244 254 258 261
159 162 171 176 187 188 186 187 198 170 210 242 238 253 169 276 273 231 228 231 226 194 212 227 220 243 240 241 245 246 258 269 269 270 276 280 284 275 260 293 271 301 345 328 320 311 296 286 270 262 252 244 240 232 234 233 222 202 218 231 232 213 212 185 214 232 185 179 228 246 263 115 209 131 107 43 267 263 276 275 268 254 251 251 255 265 276
162 167 177 184 192 192 182 188 185 202 191 247 214 239 217 232 230 223 223 222 228 181 265 309 209 220 228 238 246 257 260 260 265 263 264 254 265 272 279 271 301 332 312 321 299 295 286 248 255 245 237 232 223 232 200 182 203 224 208 209 229 229 222 204 211 180 234 238 236 242 335 278 238 227 231 214 247 206 234 293 296 57 335 287 270 269 233
168 174 180 185 193 188 187 179 190 200 199 200 232 222 226 220 262 262 299 275 246 163 200 230 132 210 224 238 237 251 246 251 252 248 247 255 257 264 278 285 305 309 319 298 297 271 264 267 250 229 229 223 217 221 187 219 145 166 227 215 212 226 225 209 233 192 230 239 240 236 244 260 260 199 197 171 98 2 16 275 273 219 214 234 256 261 212
176 180 183 187 187 189 180 182 186 199 201 217 223 220 218 220 261 258 254 250 241 225 193 228 70 72 221 186 199 244 267 271 267 273 262 248 253 258 245 300 302 307 271 267 266 283 266 242 242 238 232 226 221 236 214 190 185 129 183 201 206 214 222 226 222 215 195 226 243 249 262 259 292 173 153 155 162 196 190 253 278 125 146 174 231 244 195
183 183 185 184 185 182 179 179 187 192 188 200 212 205 213 196 221 226 218 226 240 239 58 87 151 183 226 210 195 230 230 255 272 269 269 255 268 306 300 322 292 241 244 265 257 250 235 238 242 242 244 249 223 206 134 229 197 176 166 211 205 197 210 211 224 208 195 214 227 240 232 253 174 169 140 144 171 150 222 270 287 114 138 149 210 232 191
185 185 184 185 183 181 179 176 184 187 180 194 225 202 200 185 230 262 230 242 218 243 181 128 209 211 247 12 301 50 17 235 230 238 259 284 285 268 343 322 268 182 257 259 246 244 246 246 237 230 242 114 315 103 235 149 171 185 207 218 200 198 208 207 220 215 203 204 239 240 224 197 182 142 127 121 151 194 235 253 24 110 113 170 205 227 184
188 187 186 185 183 180 176 171 177 180 186 188 219 234 232 210 205 239 256 235 231 217 94 57 252 270 1 322 292 315 317 339 324 297 277 274 273 348 297 277 303 263 194 255 236 246 243 239 248 254 244 186 188 235 161 196 195 107 172 216 247 216 201 206 221 225 221 207 232 231 250 187 131 116 134 140 171 231 264 12 28 114 137 163 200 196 177
191 188 183 181 185 182 173 166 164 165 175 197 231 229 108 162 199 220 227 228 228 262 156 162 180 189 168 249 220 221 190 200 230 261 273 266 34 337 301 252 187 240 254 247 257 244 249 242 236 227 239 242 212 312 237 228 201 211 177 233 247 221 210 210 202 214 230 220 228 231 234 164 153 130 131 178 235 273 348 53 44 22 168 175 187 201 172
193 185 178 179 183 178 170 162 155 157 180 186 225 259 208 156 196 218 254 283 251 249 214 178 269 262 260 258 261 268 270 272 290 275 290 286 350 335 253 278 36 343 267 240 245 226 235 244 237 227 310 289 118 204 238 232 221 206 210 215 252 9 266 250 237 207 208 212 219 224 229 147 159 161 208 181 227 194 188 200 212 187 215 193 182 193 184
192 182 177 180 178 178 171 162 151 156 175 187 218 256 228 149 176 201 233 266 255 243 329 357 307 296 280 273 269 264 263 264 265 281 283 278 250 254 300 316 291 319 329 312 261 243 239 275 331 261 235 224 196 248 264 240 235 144 141 155 242 165 225 264 269 219 237 240 236 203 111 156 176 203 254 196 202 166 167 261 324 182 194 204 209 175 178
188 182 180 181 179 176 168 158 155 155 178 174 206 241 233 160 173 175 196 223 236 262 274 272 264 260 253 249 244 246 248 250 260 248 236 251 260 242 250 258 261 250 266 274 290 318 330 300 259 345 294 289 306 273 246 248 257 201 202 183 231 264 290 320 282 236 227 269 39 66 159 168 190 213 212 165 170 180 223 222 223 208 112 180 207 165 169
187 183 181 177 175 173 167 160 158 162 169 180 222 226 197 196 149 172 198 237 275 286 258 230 247 238 203 178 162 196 216 225 231 237 231 232 250 251 238 240 269 276 248 270 28 290 306 296 323 265 252 268 312 257 259 248 246 252 249 210 205 242 240 236 242 255 233 234 188 208 202 201 210 216 211 204 213 195 206 218 241 293 150 183 210 175 169
186 183 177 174 171 177 172 162 161 160 172 175 200 240 301 231 203 215 199 185 223 234 275 173 221 274 1 324 243 245 232 235 211 217 213 214 228 243 267 26 289 292 316 26 351 259 235 259 217 216 228 193 253 257 291 297 273 302 254 238 214 222 193 250 241 236 230 251 211 209 208 211 210 223 216 219 220 217 213 222 227 171 122 206 168 166 162
184 181 175 173 174 176 173 166 159 157 172 182 236 216 206 198 172 249 258 268 313 253 269 270 123 120 250 270 242 254 294 245 227 206 203 207 214 226 249 247 235 153 159 80 4 356 313 254 255 264 245 228 162 241 262 301 313 296 284 278 265 173 151 234 238 242 247 234 200 183 199 227 227 228 235 243 228 208 205 207 211 211 193 177 160 187 172
184 181 176 176 174 170 173 166 164 158 162 176 207 216 223 212 203 211 208 216 221 212 225 251 272 65 355 302 297 289 258 237 225 221 212 210 217 222 232 245 251 231 233 218 167 234 247 272 264 247 229 253 141 246 326 310 291 289 281 266 157 208 212 207 196 237 237 233 217 186 227 223 217 222 227 224 217 211 190 185 202 198 188 175 164 156 163
183 183 181 176 174 169 165 170 164 154 152 179 226 224 229 230 193 216 252 290 251 279 317 295 300 330 317 273 273 234 206 219 205 212 225 224 222 222 223 228 230 241 230 224 237 212 216 234 237 254 269 203 194 226 183 245 274 271 257 265 255 247 235 240 225 239 254 248 241 211 231 258 294 340 302 252 192 195 195 194 198 194 188 176 165 152 154
183 184 182 179 172 170 163 159 152 135 137 218 199 200 206 219 218 202 238 283 289 270 284 286 288 271 276 43 328 279 267 254 243 233 233 226 215 214 218 219 221 220 221 232 262 267 252 251 270 240 229 187 200 215 168 212 232 246 261 268 254 249 266 259 245 252 266 305 296 283 255 262 231 211 220 219 186 188 194 198 197 187 176 172 178 171 163
181 182 181 175 173 168 163 143 132 150 219 215 189 187 189 186 199 205 186 212 225 266 270 296 286 287 0 302 278 277 278 255 244 233 229 219 211 209 211 206 211 201 205 216 211 244 239 251 229 249 266 284 240 205 219 196 225 251 275 280 275 262 257 252 253 239 245 234 312 285 269 259 270 233 191 200 178 186 188 187 180 176 169 173 174 168 170
179 179 174 177 174 172 158 141 138 150 246 213 194 178 195 190 155 183 155 193 202 243 259 271 269 322 290 239 257 275 272 262 240 233 226 219 215 213 211 199 208 184 210 215 217 235 142 222 205 229 205 225 229 230 232 211 226 234 260 276 274 264 256 256 256 263 273 272 294 296 274 260 247 245 210 187 170 169 156 138 137 146 138 169 169 146 135
176 173 173 177 180 165 158 151 133 203 240 212 211 326 20 39 39 126 162 191 181 213 233 264 272 244 295 277 225 228 282 284 258 219 212 205 218 205 203 202 213 198 216 226 218 190 217 219 239 252 230 186 196 246 235 235 226 222 220 240 267 283 291 294 284 273 266 256 260 254 247 238 222 236 240 170 156 153 130 127 127 115 113 118 99 95 97
171 170 172 177 172 173 165 165 183 247 260 325 329 262 244 215 248 259 179 183 188 197 253 269 269 323 272 329 336 261 218 245 221 209 220 192 224 181 204 199 223 227 183 199 203 215 150 147 251 252 242 142 211 228 233 233 236 229 225 235 244 284 304 301 286 278 268 239 220 242 257 254 225 177 56 132 139 142 128 128 123 123 127 130 128 119 113
168 167 169 171 175 166 171 186 197 229 258 250 205 219 168 166 175 259 228 186 126 77 291 262 252 245 266 340 289 160 185 257 251 200 223 180 207 200 197 160 182 221 183 203 219 196 173 96 214 240 173 215 230 250 236 240 244 250 243 249 277 291 298 294 281 268 251 235 216 239 298 305 356 107 135 132 120 121 130 130 137 137 141 138 128 124 123
164 165 162 164 168 166 162 196 197 205 191 186 229 101 115 165 169 174 219 199 181 164 200 233 253 279 281 261 265 161 116 252 248 212 239 143 190 222 183 218 148 224 180 107 340 212 196 220 190 202 235 114 207 228 243 244 237 244 254 257 239 268 290 288 269 270 266 223 204 235 290 238 193 179 157 143 136 141 142 146 145 143 142 132 127 132 139
157 151 156 161 152 188 164 196 228 180 187 190 147 92 116 136 135 156 230 277 292 263 207 224 206 243 257 271 268 72 30 257 258 253 253 192 200 215 228 209 233 183 87 168 238 171 223 170 138 223 168 218 238 240 250 290 298 294 285 271 241 217 258 290 298 286 249 207 204 254 218 225 198 154 139 142 141 145 145 145 152 148 134 134 132 126 123
146 148 150 162 180 176 193 179 149 222 54 77 105 124 124 124 132 177 218 250 212 254 275 266 246 246 248 267 303 291 271 260 192 244 200 211 224 159 195 197 235 94 103 222 213 232 222 140 235 254 232 243 254 245 280 307 311 319 311 298 296 288 267 274 284 272 206 185 176 176 161 147 122 133 136 132 134 139 144 148 149 154 143 127 127 133 135
144 163 171 169 175 174 153 175 166 115 106 123 146 143 160 207 161 166 201 226 218 233 228 242 249 258 252 257 254 58 268 254 219 260 233 233 237 199 213 239 226 140 222 240 223 140 152 197 213 238 257 237 247 294 333 316 287 290 295 293 285 280 267 267 277 234 157 156 142 123 122 107 86 80 120 128 138 143 138 136 138 122 118 121 128 140 145
157 164 195 196 199 166 129 124 113 144 147 154 228 187 155 195 198 199 201 180 170 227 218 235 244 240 240 238 248 227 259 302 263 249 243 115 276 216 184 220 168 160 234 258 204 148 229 222 236 212 262 207 148 250 344 303 297 293 295 292 291 278 302 292 283 277 114 60 60 57 29 47 82 141 141 138 127 121 118 117 107 118 128 135 146 166 161
168 175 168 167 179 91 88 104 171 161 162 157 169 231 162 188 214 206 150 194 209 217 195 232 228 241 238 244 253 237 162 219 237 248 250 176 97 276 56 292 116 171 223 238 199 151 242 244 190 212 241 114 324 314 302 306 306 312 305 297 300 304 291 282 280 278 248 126 41 26 27 31 6 340 313 158 140 133 134 136 137 135 127 107 89 139 132
192 153 162 147 107 117 124 146 162 174 153 161 139 216 195 194 217 263 203 229 241 219 193 241 194 222 214 235 235 246 149 237 282 5 299 276 31 307 212 225 66 250 238 232 125 205 223 251 235 244 201 188 292 324 318 313 316 308 299 303 302 292 277 263 261 262 249 209 147 45 20 34 11 354 330 316 145 133 130 126 121 106 108 117 122 106 93
152 13 77 81 102 115 137 152 170 139 120 190 193 194 191 227 170 200 233 246 224 209 189 198 226 233 219 202 214 235 210 252 308 267 263 258 126 282 263 267 203 236 239 125 98 219 234 240 242 234 86 354 336 318 325 319 292 291 298 270 253 246 242 231 214 220 227 180 121 111 64 41 6 324 306 307 105 123 126 121 115 115 108 100 103 110 101
233 286 188 132 139 144 171 149 167 210 155 161 181 212 181 209 210 221 202 210 276 266 151 190 300 17 32 217 198 227 323 80 234 185 246 218 122 242 253 224 236 232 243 33 232 220 224 230 236 102 33 355 341 330 330 323 316 312 323 317 290 263 249 206 185 180 197 173 140 120 95 101 205 249 270 261 175 126 111 105 112 116 117 113 103 102 106
161 183 163 144 136 132 206 152 166 118 213 198 181 199 188 215 198 191 229 196 170 220 202 220 186 218 202 172 228 149 168 163 333 185 134 151 228 216 218 229 226 348 340 252 228 229 230 251 9 16 353 346 343 346 333 333 331 331 344 4 358 4 91 138 145 145 131 117 114 112 125 183 181 185 216 259 158 133 118 104 98 108 110 112 107 101 103
153 154 143 143 130 154 162 123 181 199 214 199 216 226 194 209 209 201 221 107 207 87 109 233 227 237 243 131 195 156 263 151 46 249 201 218 241 234 236 299 44 309 283 245 239 236 220 201 78 9 3 350 355 341 338 340 349 355 20 32 39 45 75 93 111 125 131 136 139 152 161 176 169 137 115 96 67 85 111 113 123 123 116 111 110 105 97
168 153 147 132 99 243 210 170 159 208 232 211 206 217 223 231 248 209 92 87 223 188 206 123 255 235 213 162 246 146 143 127 175 157 48 330 269 223 103 37 212 263 259 252 238 234 196 41 10 10 3 350 351 354 7 16 19 31 49 53 50 61 70 84 90 95 101 107 113 113 105 104 99 95 90 75 68 75 80 92 101 110 112 109 105 107 104
135 183 194 107 136 164 225 202 193 212 203 207 220 223 237 264 333 341 32 281 251 302 343 279 273 288 242 181 183 157 145 199 197 128 170 192 238 77 238 248 230 212 211 229 219 237 245 56 37 34 18 3 9 33 40 46 46 53 58 60 61 63 69 75 78 80 82 86 86 83 79 77 75 75 79 76 58 52 64 72 77 89 100 105 109 111 106
149 116 177 179 184 172 191 219 228 213 221 246 204 222 262 324 266 240 191 202 279 295 258 238 205 173 202 153 263 219 162 190 170 161 226 95 53 265 228 238 237 224 252 257 209 23 13 42 36 27 13 1 19 44 57 58 55 54 57 59 60 62 65 69 71 74 77 80 79 75 69 63 69 74 75 71 65 45 35 53 76 84 97 107 109 105 102
16 169 185 197 146 175 203 193 197 228 201 197 213 228 219 224 232 234 148 165 195 203 16 301 27 299 194 106 222 181 183 163 230 152 168 208 232 228 221 232 205 221 156 285 353 10 356 20 57 35 52 50 55 58 56 46 50 53 48 43 35 36 48 50 50 56 68 75 76 74 57 31 67 79 76 73 67 46 29 45 68 83 95 98 98 98 97
185 147 208 186 174 211 178 181 219 230 195 191 201 215 210 226 232 183 120 182 156 140 119 82 116 327 360 277 212 210 203 184 215 146 203 218 232 242 239 243 212 256 79 12 356 350 31 48 87 129 94 56 48 45 48 50 46 49 45 36 23 18 24 38 49 51 45 46 57 53 51 51 67 84 83 81 79 51 43 45 49 66 71 78 85 86 85
311 286 202 342 291 166 162 191 201 211 211 204 203 187 193 219 213 145 127 174 158 170 188 171 149 187 180 207 213 206 178 80 227 217 249 222 52 272 248 257 50 17 30 23 6 341 79 104 102 104 59 45 34 31 38 44 53 54 52 45 26 24 37 36 27 42 71 68 49 34 52 62 57 67 81 89 92 80 71 51 37 40 60 69 76 85 85
176 191 189 168 213 255 240 305 267 257 332 59 174 105 226 208 152 103 124 224 186 197 174 158 189 188 187 196 189 111 109 224 223 210 205 130 322 290 326 353 5 12 10 357 7 41 131 119 112 72 45 14 2 16 18 19 23 35 40 47 49 44 49 53 41 39 51 79 93 92 51 29 30 45 105 116 111 98 85 71 32 45 64 72 74 76 80